Regional Weather Roundup
Issued by NWS

Home | Current Version | Previous Version | Graphics & Text | Print | Product List | Glossary On
Versions: 1 2 3 4 5 6 7 8 9 10 11 12 13 14 15 16 17 18 19 20 21 22 23 24 25 26 27 28 29 30 31 32 33 34 35 36 37 38 39 40 41 42 43 44 45 46 47 48 49 50
000
ASUS45 KBOU 270207
RWRCO

WEATHER ROUNDUP FOR COLORADO
NATIONAL WEATHER SERVICE DENVER/BOULDER CO
800 PM MDT TUE MAY 26 2015

NOTE: "FAIR" INDICATES FEW OR NO CLOUDS BELOW 12000 FEET WITH NO
SIGNIFICANT WEATHER AND/OR OBSTRUCTIONS TO VISIBILITY.

COZ001>005-013-030-031-270300-
...NORTHWEST COLORADO...

CITY           SKY/WX    TMP DP  RH WIND       PRES   REMARKS
CRAIG          LGT RAIN  50  42  74 S16G26    30.11R
HAYDEN         CLOUDY    50  37  62 SW13      30.13R
MEEKER         LGT RAIN  49  44  83 W3        30.14R
MOUNT WERNER   NOT AVBL
STEAMBOAT SPGS CLOUDY    47  43  87 S9        30.15R
WALDEN         MOCLDY    46  39  76 S7        30.17R
$$

COZ006>008-011-270300-
...WEST CENTRAL VALLEYS...

CITY           SKY/WX    TMP DP  RH WIND       PRES   REMARKS
GRAND JUNCTION PTCLDY    59  46  62 SE18      30.04R
MONTROSE       MOCLDY    58  48  69 NW7       30.14R
EAGLE          CLOUDY    54  43  66 W10       30.17R
RIFLE          CLOUDY    53  48  83 NE5       30.11F
DELTA          CLOUDY    58  49  70 MISG      30.12R
NUCLA          LGT RAIN  59  43  55 NW3       30.14R
$$

COZ017>023-064>068-270300-
...SOUTHWEST COLORADO...

CITY           SKY/WX    TMP DP  RH WIND       PRES   REMARKS
DURANGO        PTCLDY    61  36  39 NW6       30.12S
CORTEZ         CLEAR     62  42  47 E6        30.09R
PAGOSA SPRINGS PTCLDY    56  37  48 NW7       30.19R
TELLURIDE      MOCLDY    47  38  70 CALM      30.28R
WOLF CREEK PAS NOT AVBL
$$

COZ009-010-012-014-032>034-037-058>063-270300-
...CENTRAL COLORADO...

CITY           SKY/WX    TMP DP  RH WIND       PRES   REMARKS
ASPEN          NOT AVBL
BUENA VISTA    CLOUDY    54  32  43 W18       30.18R
COPPER MTN     FOG       37  34  87 W8        30.36S VSB 1
BERTHOUD PASS  FAIR      28  21  74 NW8G17    30.38R THUNDER WCI  20
COTTONWOOD PAS CLOUDY    46  32  57 W14G32    30.27R THUNDER
GUNNISON       CLOUDY    50  37  62 CALM      30.23S
KREMMLING      CLOUDY    50  36  57 W3        30.18S
LEADVILLE      CLOUDY    41  34  76 N6        30.26R
SALIDA         CLOUDY    56  38  51 SW10G17   30.23R
SUNLIGHT       FOG       37  36  93 CALM      30.33S VSB 3/4
WILKERSON PASS TSTM      37  32  81 W8        30.36R
$$

COZ069>075-270300-
...SAN LUIS VALLEY/SANGRE DE CRISTO MOUNTAINS...

CITY           SKY/WX    TMP DP  RH WIND       PRES   REMARKS
ALAMOSA        MOCLDY    53  36  52 NW18G32   30.16R
LA VETA PASS   CLOUDY   N/A N/A N/A MISG      30.23F
SAGUACHE       MIX PCPN  46  43  87 N6        30.24R
$$

COZ035-036-038>040-270300-
...NORTHERN COLORADO FRONT RANGE...

CITY           SKY/WX    TMP DP  RH WIND       PRES   REMARKS
DENVER INTL AP MOCLDY    60  48  64 S7        30.04R THUNDER
DMNS CITY PARK   N/A     61  46  56 S5G10     30.05R
AURORA         MOCLDY    60  47  64 W6        30.06R THUNDER
FRONT RANGE AP MOCLDY    63  48  59 SE3       30.05R
ERIE MUNI ARPT CLOUDY    62  47  56 SW3       30.03S
BOULDER MUN AP CLOUDY    63  37  39 SW7       30.03S
CENTENNIAL     CLOUDY    60  47  61 S6        30.06R THUNDER
BROOMFIELD     MOCLDY    61  45  55 W3        30.06S
FORT COLLINS   MOCLDY    61  46  59 E7        30.04S
LONGMONT       MOCLDY    62  48  59 CALM      30.04S
$$

COZ041-046-047-076>085-087-088-270300-
...PIKES PEAK/PALMER DIVIDE AND SOUTHERN FOOTHILLS...

CITY           SKY/WX    TMP DP  RH WIND       PRES   REMARKS
COLO. SPRINGS  CLOUDY    59  47  64 SE8       30.08R
A. F. ACADEMY  CLOUDY    56  45  65 W10       30.11R
ELLICOTT       CLOUDY   N/A N/A N/A SE10      30.06S
FALCON         CLOUDY    55  44  67 E7        30.12S THUNDER
FORT CARSON    NOT AVBL
LIMON          MOCLDY    57  47  69 SE7       30.05S
MONUMENT HILL  CLOUDY    52  45  76 MISG      30.14R THUNDER
TRINIDAD       LGT RAIN  60  49  66 S9        30.06R
$$

COZ042>045-048>051-090-091-270300-
...NORTHEAST COLORADO...

CITY           SKY/WX    TMP DP  RH WIND       PRES   REMARKS
GREELEY ARPT   MOCLDY    59  48  67 E5        30.03R
AKRON          MOCLDY    60  50  69 E9        30.04R
BURLINGTON     PTCLDY    60  52  74 SE8       30.03S
WRAY           CLEAR     64  52  66 E7        30.01S
STERLING       MOCLDY    63  52  67 SE5       30.00R
HOLYOKE        CLEAR     63  52  67 E5        30.01S
FORT MORGAN    MOCLDY    62  50  66 E5        30.03R
$$

COZ086-089-092>099-270300-
...SOUTHEAST COLORADO...

CITY           SKY/WX    TMP DP  RH WIND       PRES   REMARKS
PUEBLO         LGT RAIN  63  53  70 NE14      30.00R
LA JUNTA       PTCLDY    68  51  54 E13       29.98R
LAMAR          CLOUDY    66  53  63 E8        29.97R
SPRINGFIELD      N/A     63  49  60 SE9       30.02R
$$


USA.gov is the U.S. government's official web portal to all federal, state and local government web resources and services.